Regional Weather Roundup
Issued by NWS

Home | Current Version | Previous Version | Graphics & Text | Print | Product List | Glossary On
Versions: 1 2 3 4 5 6 7 8 9 10 11 12 13 14 15 16 17 18 19 20 21 22 23 24 25 26 27 28 29 30 31 32 33 34 35 36 37 38 39 40 41 42 43 44 45 46 47 48 49 50
000
ASUS43 KMPX 030510
RWRMN
WEATHER ROUNDUP FOR MINNESOTA
NATIONAL WEATHER SERVICE TWIN CITIES/CHANHASSEN MN
1200 AM CDT FRI JUL 03 2015


NOTE: "FAIR" INDICATES FEW OR NO CLOUDS BELOW 12,000 FEET WITH NO
SIGNIFICANT WEATHER AND/OR OBSTRUCTIONS TO VISIBILITY. N/A MEANS
CURRENT SKY AND/OR WEATHER CONDITIONS ARE NOT AVAILABLE.

MNZ060>063-068>070-030600-
   Twin Cities Metro

CITY           SKY/WX    TMP DP  RH WIND       PRES   REMARKS
TWIN CITIES    CLEAR     69  55  60 CALM      29.98F
ST PAUL        CLEAR     65  58  78 CALM      29.99S
CRYSTAL        CLEAR     62  55  77 CALM      29.97S
BLAINE         CLEAR     63  57  82 CALM      29.99S
LAKEVILLE      CLEAR     55  55 100 CALM      29.99S
EDEN PRAIRIE   CLEAR     65  56  72 CALM      29.98S
SOUTH ST PAUL  CLEAR     65  56  73 CALM      29.98S
LAKE ELMO      FAIR      61  57  88 CALM      30.00S
$$
MNZ001>005-007-008-013>017-022>024-027-028-030600-
   Northwest Minnesota

CITY           SKY/WX    TMP DP  RH WIND       PRES   REMARKS
BEMIDJI        PTCLDY    64  55  73 SW6       29.93S
HALLOCK        CLEAR     68  64  88 NW6       29.87S FOG
ROSEAU         CLEAR     66  61  82 SW6       29.87F
WARROAD        PTCLDY    66  61  82 SW6       29.87F
THIEF RVR FALL PTCLDY    64  55  72 SW7       29.91R
CROOKSTON      CLEAR     64  59  82 SW7       29.91S
FOSSTON        PTCLDY    63  54  72 S9        29.93F
DETROIT LAKES  CLEAR     64  54  68 SW6       29.96F
MOORHEAD       CLEAR     66  54  63 S8        29.94S
PARK RAPIDS    CLEAR     61  52  72 SW3       29.95F
MAHNOMEN       FAIR      63  55  77 S8        29.93F
$$
MNZ006-009>011-018-025>026-030600-
   North Central Minnesota

CITY           SKY/WX    TMP DP  RH WIND       PRES   REMARKS
BAUDETTE       CLEAR     66  55  67 SW9       29.87S
FLAG ISLAND    CLEAR     70  63  78 SW12      29.84S
INTL FALLS     CLOUDY    68  57  68 SW7       29.87S
WASKISH        PTCLDY    64  57  77 S5        29.90S
BIG FORK       PTCLDY    63  57  82 SW5       29.92S
LONGVILLE      CLEAR     63  55  77 S5        29.94F
GRAND RAPIDS   CLEAR     66  54  63 SW6       29.94S
CRANE LAKE     CLOUDY    64  57  77 S2        29.90S
ORR            MOCLDY    64  55  72 CALM      29.88S
COOK           CLOUDY    66  57  72 SW6       29.91S
WALKER         FAIR      61  53  75 SW5       29.94S
$$
MNZ012-019>021-037-030600-
   Northeast Minnesota

CITY           SKY/WX    TMP DP  RH WIND       PRES   REMARKS
DULUTH         PTCLDY    64  54  69 W8        29.94F
ELY            MOCLDY    64  57  77 SW3       29.91S
HIBBING        CLEAR     61  57  87 SW3       29.92F
DULUTH HARBOR  CLEAR     66  59  77 SW10      29.93S
TWO HARBORS    CLEAR     64  57  77 W7        29.91S
SILVER BAY     CLEAR     61  57  88 CALM      29.90S
GRAND MARAIS     N/A     52  50  93 SW3       29.87S
G MARAIS ARPRT CLEAR     59  55  88 SW3       29.92S
$$
MNZ029>031-032-039>041-046>048-054>057-064-030600-
   West Central Minnesota

CITY           SKY/WX    TMP DP  RH WIND       PRES   REMARKS
FERGUS FALLS   PTCLDY    63  55  77 S6        29.96F
WHEATON        CLEAR     61  54  77 S6        29.99R
MORRIS         CLEAR     61  54  77 S3        29.98S
ALEXANDRIA     CLEAR     60  54  80 S3        30.00F
ELBOW LAKE     FAIR      61  55  81 S7        29.98S
WADENA         CLEAR     55  52  88 S5        29.96F
GLENWOOD       PTCLDY    61  54  77 SW3       30.00S
APPLETON       CLEAR     57  54  88 CALM      29.98S
BENSON         CLEAR     55  54  94 CALM      29.99S
ORTONVILLE     CLEAR     61  54  77 CALM      29.98S
MADISON        CLEAR     61  54  77 SW3       29.99S
WILLMAR        FAIR      59  55  88 CALM      30.01R
$$
MNZ033>034-036-042>043-049>051-058-059-030600-
   Central Minnesota

CITY           SKY/WX    TMP DP  RH WIND       PRES   REMARKS
ST CLOUD       CLEAR     57  55  93 CALM      29.98F
SAUK CENTRE    FAIR      56  55  96 CALM      29.99F FOG
PAYNESVILLE    CLEAR     53  52  96 CALM      30.00S
AITKIN         CLEAR     57  52  82 CALM      29.95S
PINE RIVER     CLEAR     57  54  88 CALM      29.99F
BRAINERD       CLEAR     57  55  93 CALM      29.97F
STAPLES        CLEAR     55  54  94 S5        29.97F
LONG PRAIRIE   FAIR      55  54  94 CALM      30.00S
LITTLE FALLS   CLEAR     55  52  88 CALM      29.98F
LITCHFIELD     CLEAR     61  54  77 CALM      30.00S
BUFFALO        CLEAR     59  54  84 CALM      30.00S
MAPLE LAKE     CLEAR     58  57  94 CALM      30.00S
$$
MNZ037-044-045-052-053-030600-
   East Central Minnesota

CITY           SKY/WX    TMP DP  RH WIND       PRES   REMARKS
PRINCETON      CLEAR     59  55  88 CALM      29.98F
MORA           CLEAR     55  55 100 CALM      29.99F
CAMBRIDGE      CLEAR     63  54  72 CALM      29.96F
RUSH CITY      MOCLDY    57  55  92 CALM      29.98S
MOOSE LAKE     MOCLDY    55  54  94 CALM      29.94F FOG
HINCKLEY       FAIR      57  55  94 CALM      29.97S
CLOQUET        PTCLDY    63  52  67 SW6       29.95S
MCGREGOR       PTCLDY    63  55  77 CALM      29.96F
$$
MNZ071>073-080-081-089-090-097-098-030600-
   Southwest Minnesota

CITY           SKY/WX    TMP DP  RH WIND       PRES   REMARKS
MONTEVIDEO     CLEAR     59  52  77 CALM      30.00R
GRANITE FALLS  CLEAR     55  52  89 CALM      30.01S
CANBY          CLEAR     60  54  79 SW5       30.00S
MARSHALL       CLEAR     57  48  72 SW6       29.99S
REDWOOD FALLS  CLEAR     62  54  74 SW3       29.99R
OLIVIA         CLEAR     57  50  77 CALM      29.99S
PIPESTONE      CLEAR     59  54  82 CALM      30.01S
WINDOM         CLEAR     55  52  88 CALM      30.01S
WORTHINGTON    CLEAR     55  48  76 CALM      30.01S
JACKSON        CLEAR     57  52  82 CALM      30.01S
TRACY          CLEAR     58  52  78 SW7       30.01R
SLAYTON        CLEAR     55  51  89 CALM      30.03R
$$
MNZ065>067-074>077-082>085-091>093-030600-
   South Central Minnesota

CITY           SKY/WX    TMP DP  RH WIND       PRES   REMARKS
MANKATO        CLEAR     63  54  72 CALM      29.99S
NEW ULM        CLEAR     61  55  82 CALM      29.99S
ST JAMES       CLEAR     59  54  82 CALM      30.00S
FAIRMONT       CLEAR     57  48  72 CALM      29.99S
GLENCOE        CLEAR     59  56  91 CALM      29.98F
FARIBAULT      CLEAR     55  54  94 CALM      30.00S
OWATONNA       PTCLDY    57  55  94 CALM      30.00R
WASECA         CLEAR     55  52  88 CALM      30.01S
ALBERT LEA     PTCLDY    59  57  94 CALM      30.00S
$$
MNZ078>079-086>088-094>096-030600-
   Southeast Minnesota

CITY           SKY/WX    TMP DP  RH WIND       PRES   REMARKS
ROCHESTER      PTCLDY    61  54  77 S5        30.01R
RED WING       CLEAR     57  55  94 CALM      29.98S
STANTON        CLEAR     59  57  94 CALM      29.98S
DODGE CENTER   PTCLDY    57  55  94 SE3       30.00S
WINONA         PTCLDY    61  59  94 CALM      30.00R
AUSTIN         MOCLDY    63  55  77 CALM      30.00S
PRESTON        MOCLDY    60  54  79 CALM      30.01S
$$
ABBREVIATIONS USED IN REMARKS
   TC - TEMPERATURES IN CELSIUS
  WCI - WIND CHILL INDEX
   HX - HEAT INDEX
  VSB - VISIBILITY
$$


USA.gov is the U.S. government's official web portal to all federal, state and local government web resources and services.